User: anonymous   Login
Location: Caltech
(34.1382°N, 118.1253°W)
Time: 00:50:23
(UTC-07:00)
Language:

COSMOS 2428 - Orbit

View from above orbital plane
View from above orbital plane
View from above satellite
View from above satellite

Ground track
Ground track

The orbit data is extracted from the following two-line orbital elements,

1 31792U 07029A   16210.65954137 -.00000320  00000-0 -14764-3 0  9992
2 31792  70.9342  11.2462 0008739  30.8147 329.3485 14.12344432468397
Epoch (UTC): 28 July 2016 15:49:44
Eccentricity: 0.0008739
inclination: 70.9342°
perigee height: 845 km
apogee height: 857 km
right ascension of ascending node: 11.2462°
argument of perigee: 30.8147°
revolutions per day: 14.12344432
mean anomaly at epoch: 329.3485°
orbit number at epoch: 46839

The dashed part of the orbit path shows where the satellite is in the earth's shadow,  

DLR